This is the latest recevied weather packets stored in our database for station/object KO4APQ. If no packets are shown the sender has not sent any weather packets the latest 10 day(s).
| Time | Temp. | Humidity | Pressure | Rain* | Wind** | Luminosity | Snow |
|---|---|---|---|---|---|---|---|
| 1778072860 | 18.89° C | 69% | 1015.2 hPa | 0 mm | - | 154 W/m² | - |
| 1778072557 | 18.33° C | 69% | 1014.9 hPa | 0 mm | - | 165 W/m² | - |
| 1778072256 | 18.33° C | 69% | 1015 hPa | 0 mm | - | 186 W/m² | - |
| 1778071953 | 18.33° C | 69% | 1015.3 hPa | 0 mm | - | 159 W/m² | - |
| 1778071651 | 18.33° C | 69% | 1015.3 hPa | 0 mm | - | 139 W/m² | - |
| 1778071349 | 18.33° C | 69% | 1015.5 hPa | 0 mm | - | 167 W/m² | - |
| 1778071046 | 18.33° C | 69% | 1015.4 hPa | 0 mm | - | 131 W/m² | - |
| 1778070745 | 17.78° C | 68% | 1015.2 hPa | 0 mm | - | 89 W/m² | - |
| 1778070441 | 17.78° C | 68% | 1015.2 hPa | 0 mm | - | 106 W/m² | - |
| 1778070138 | 17.78° C | 68% | 1015.1 hPa | 0 mm | - | 106 W/m² | - |
| 1778069836 | 17.78° C | 67% | 1015.4 hPa | 0 mm | - | 73 W/m² | - |
| 1778069532 | 17.78° C | 67% | 1015.3 hPa | 0 mm | - | 41 W/m² | - |
| 1778069230 | 17.78° C | 66% | 1015.1 hPa | 0 mm | - | 39 W/m² | - |
| 1778068928 | 17.78° C | 66% | 1014.9 hPa | 0 mm | - | 93 W/m² | - |
| 1778068626 | 17.78° C | 66% | 1014.7 hPa | 0 mm | - | 111 W/m² | - |
| 1778068324 | 17.78° C | 66% | 1014.6 hPa | 0 mm | - | 88 W/m² | - |
| 1778068021 | 17.78° C | 65% | 1014.6 hPa | 0 mm | - | 67 W/m² | - |
| 1778067718 | 17.78° C | 66% | 1014.4 hPa | 0 mm | - | 51 W/m² | - |
| 1778067417 | 17.78° C | 66% | 1014.5 hPa | 0 mm | - | 48 W/m² | - |
| 1778067114 | 17.78° C | 65% | 1014.6 hPa | 0 mm | - | 21 W/m² | - |
| 1778066809 | 17.78° C | 65% | 1014.9 hPa | 0 mm | - | 27 W/m² | - |
| 1778066508 | 17.78° C | 65% | 1014.8 hPa | 0 mm | - | 19 W/m² | - |
| 1778066205 | 17.78° C | 65% | 1014.8 hPa | 0 mm | - | 25 W/m² | - |
| 1778065903 | 17.78° C | 64% | 1014.9 hPa | 0 mm | - | 18 W/m² | - |
| 1778065600 | 17.78° C | 65% | 1014.7 hPa | 0 mm | - | 16 W/m² | - |
* Rain latest hour (hover to see other rain measurements)
** Current wind speed in m/s (hover to see current wind gust speed)